Adana Incirlik AFB, Turkey

2:09 PM +03 on January 22, 2018 (GMT +0300)
Incirlik Air Base

Weather History for LTAG - October, 2012

Change the Weather History Date:

Saturday, October 6, 2012

  Actual Average Record
Temperature  
Mean Temperature 67 °F -  
Max Temperature 72 °F 82 °F 95 °F (2003)
Min Temperature 62 °F 58 °F 50 °F (2013)
Cooling Degree Days 2    
Growing Degree Days 17 (Base 50)    
Moisture  
Dew Point 63 °F    
Average Humidity 82    
Maximum Humidity 100    
Minimum Humidity 61    
Precipitation  
Precipitation 0.01 in - - ()
Sea Level Pressure  
Sea Level Pressure 29.96 in    
Wind  
Wind Speed 5 mph ()    
Max Wind Speed 10 mph    
Max Gust Speed -    
Visibility 6.2 miles    
Events Rain , Thunderstorm    
Averages and records for this station are not official NWS values.
T = Trace of Precipitation, MM = Missing Value Source: Averaged Metar Reports

Daily Weather History Graph

Daily Weather History Graph

Search for Another Location

Airport or City:

Trip Planner

Search our weather history database for the weather conditions in past years. The results will help you decide how hot, cold, wet, or windy it might be!

Date:

Astronomy

Oct. 06, 2012 Rise Set
Actual Time 6:38 AM EEST 6:14 PM EEST
Civil Twilight 6:12 AM EEST 6:39 PM EEST
Nautical Twilight 5:42 AM EEST 7:09 PM EEST
Astronomical Twilight 5:11 AM EEST 7:40 PM EEST
Moon 10:17 PM EEST (10/6) 12:10 PM EEST (10/6)
Length of Visible Light 12h 27m
Length of Day
11h 35m
Waning Gibbous, 68% of the Moon is Illuminated
Oct 6
Waning Gibbous
Oct 8
Last Quarter
Oct 15
New
Oct 22
First Quarter
Oct 29
Full

Hourly Weather History & Observations

Time (EEST) Temp. Dew Point Humidity Pressure Visibility Wind Dir Wind Speed Gust Speed Precip Events Conditions
12:20 AM 68.0 °F 60.8 °F 78% 29.92 in 6.2 mi NNE 3.5 mph - N/A   Scattered Clouds
12:50 AM 66.2 °F 60.8 °F 83% 29.92 in 6.2 mi North 6.9 mph - N/A   Scattered Clouds
1:20 AM 68.0 °F 60.8 °F 78% 29.92 in 6.2 mi NW 3.5 mph - N/A   Scattered Clouds
1:50 AM 68.0 °F 60.8 °F 78% 29.92 in 6.2 mi NNW 4.6 mph - N/A   Scattered Clouds
2:20 AM 68.0 °F 60.8 °F 78% 29.92 in 6.2 mi NNW 5.8 mph - N/A   Mostly Cloudy
2:50 AM 68.0 °F 62.6 °F 83% 29.92 in 6.2 mi North 5.8 mph - N/A Rain , Thunderstorm Light Thunderstorms and Rain
3:00 AM 67 °F 60 °F 71% 29.91 in 6 mi North 5.8 mph - - Rain , Thunderstorm Thunderstorms and Rain
3:20 AM 66.2 °F 62.6 °F 88% 29.92 in 6.2 mi North 6.9 mph - N/A Thunderstorm Mostly Cloudy
3:50 AM 68.0 °F 64.4 °F 88% 29.92 in 6.2 mi North 3.5 mph - N/A Thunderstorm Mostly Cloudy
4:20 AM 68.0 °F 66.2 °F 94% 29.92 in 6.2 mi WNW 10.4 mph - N/A Thunderstorm Thunderstorm
4:50 AM 69.8 °F 66.2 °F 88% 29.92 in 6.2 mi NE 4.6 mph - N/A Rain , Thunderstorm Light Thunderstorms and Rain
5:20 AM 68.0 °F 66.2 °F 94% 29.92 in 6.2 mi North 10.4 mph - N/A Rain , Thunderstorm Light Thunderstorms and Rain
5:50 AM 68.0 °F 68.0 °F 100% 29.92 in 6.2 mi NW 10.4 mph - N/A Rain , Thunderstorm Light Thunderstorms and Rain
6:20 AM 68.0 °F 66.2 °F 94% 29.92 in 6.2 mi NNW 10.4 mph - N/A   Mostly Cloudy
6:50 AM 68.0 °F 66.2 °F 94% 29.92 in 6.2 mi North 4.6 mph - N/A   Mostly Cloudy
7:20 AM 68.0 °F 66.2 °F 94% 29.95 in 6.2 mi South 3.5 mph - N/A   Mostly Cloudy
7:50 AM 69.8 °F 64.4 °F 83% 29.92 in 6.2 mi SSE 2.3 mph - N/A   Mostly Cloudy
8:20 AM 68.0 °F 62.6 °F 83% 29.92 in 6.2 mi NNE 8.1 mph - N/A   Mostly Cloudy
8:50 AM 69.8 °F 62.6 °F 78% 29.95 in 6.2 mi West 4.6 mph - N/A   Mostly Cloudy
9:00 AM 70 °F 62 °F 70% 29.95 in 6 mi West 4.6 mph - -   Partly Cloudy
9:20 AM 69.8 °F 64.4 °F 83% 29.95 in 6.2 mi South 1.2 mph - N/A   Mostly Cloudy
9:50 AM 69.8 °F 62.6 °F 78% 29.98 in 6.2 mi ENE 6.9 mph - N/A   Mostly Cloudy
10:20 AM 69.8 °F 64.4 °F 83% 29.98 in 6.2 mi NE 8.1 mph - N/A   Mostly Cloudy
10:50 AM 69.8 °F 64.4 °F 83% 29.98 in 6.2 mi North 5.8 mph - N/A   Mostly Cloudy
11:20 AM 71.6 °F 62.6 °F 73% 29.98 in 6.2 mi North 3.5 mph - N/A   Mostly Cloudy
11:50 AM 71.6 °F 64.4 °F 78% 30.01 in 6.2 mi SSE 2.3 mph - N/A   Mostly Cloudy
12:20 PM 71.6 °F 64.4 °F 78% 30.01 in 6.2 mi ENE 2.3 mph - N/A   Mostly Cloudy
12:50 PM 71.6 °F 64.4 °F 78% 30.01 in 6.2 mi South 2.3 mph - N/A Rain , Thunderstorm Light Thunderstorms and Rain
1:20 PM 71.6 °F 64.4 °F 78% 30.01 in 6.2 mi WNW 2.3 mph - N/A   Mostly Cloudy
1:50 PM 71.6 °F 64.4 °F 78% 30.01 in 6.2 mi ESE 2.3 mph - N/A Rain , Thunderstorm Light Thunderstorms and Rain
2:20 PM 71.6 °F 66.2 °F 83% 30.01 in 6.2 mi ENE 8.1 mph - N/A   Mostly Cloudy
2:50 PM 69.8 °F 62.6 °F 78% 30.01 in 6.2 mi ENE 6.9 mph - N/A Rain Light Rain Showers
3:00 PM 71 °F 63 °F 68% 30.01 in 6 mi ENE 6.9 mph - - Rain Light Rain Showers
3:20 PM 71.6 °F 64.4 °F 78% 29.98 in 6.2 mi North 10.4 mph - N/A Rain Light Rain Showers
3:50 PM 73.4 °F 64.4 °F 73% 29.98 in 6.2 mi North 4.6 mph - N/A   Mostly Cloudy
4:20 PM 71.6 °F 62.6 °F 73% 29.98 in 6.2 mi East 6.9 mph - N/A   Mostly Cloudy
4:50 PM 71.6 °F 62.6 °F 73% 30.01 in 6.2 mi ESE 6.9 mph - N/A   Mostly Cloudy
5:20 PM 73.4 °F 59.0 °F 61% 29.98 in 6.2 mi ESE 6.9 mph - N/A   Mostly Cloudy
5:50 PM 71.6 °F 59.0 °F 64% 29.98 in 6.2 mi NNE 4.6 mph - N/A   Mostly Cloudy
6:20 PM 69.8 °F 62.6 °F 78% 29.98 in 6.2 mi NNW 8.1 mph - N/A   Mostly Cloudy
6:50 PM 68.0 °F 62.6 °F 83% 29.95 in 6.2 mi North 8.1 mph - N/A   Mostly Cloudy
7:20 PM 68.0 °F 62.6 °F 83% 29.98 in 6.2 mi ENE 4.6 mph - N/A   Mostly Cloudy
7:50 PM 68.0 °F 62.6 °F 83% 29.98 in 6.2 mi East 2.3 mph - N/A   Mostly Cloudy
8:20 PM 68.0 °F 62.6 °F 83% 29.98 in 6.2 mi NE 2.3 mph - N/A   Mostly Cloudy
8:50 PM 66.2 °F 62.6 °F 88% 29.98 in 6.2 mi West 3.5 mph - N/A   Mostly Cloudy
9:00 PM 66 °F 62 °F 83% 29.97 in 6 mi West 3.5 mph - -   Partly Cloudy
9:20 PM 66.2 °F 62.6 °F 88% 29.98 in 6.2 mi WNW 6.9 mph - N/A   Mostly Cloudy
9:50 PM 66.2 °F 60.8 °F 83% 29.95 in 6.2 mi NNW 3.5 mph - N/A   Mostly Cloudy
10:20 PM 66.2 °F 60.8 °F 83% 29.95 in 6.2 mi NNW 3.5 mph - N/A   Mostly Cloudy
10:50 PM 64.4 °F 60.8 °F 88% 29.95 in 6.2 mi NW 2.3 mph - N/A   Scattered Clouds
11:20 PM 64.4 °F 60.8 °F 88% 29.95 in 6.2 mi North 5.8 mph - N/A   Scattered Clouds
11:50 PM 62.6 °F 60.8 °F 94% 29.95 in 6.2 mi East 1.2 mph - N/A   Scattered Clouds